Miscellaneous Local Product
Issued by NWS North Platte, NE

Home | Current Version | Previous Version | Graphics & Text | Print | Product List | Glossary On
Versions: 1 2 3 4 5 6 7 8 9 10 11 12 13 14 15 16 17 18 19 20 21 22 23 24 25 26 27 28 29 30 31 32 33 34 35 36 37 38 39 40 41 42 43 44 45 46 47 48 49 50
000
AXUS43 KLBF 272310
MISLBF


WESTERN AND NORTH CENTRAL NEBRASKA HOURLY WEATHER ROUNDUP
NATIONAL WEATHER SERVICE NORTH PLATTE NE
500 PM CST FRI FEB 27 2015

***STATIONS NOT REPORTING VARIABLES SUCH AS SKY/WEATHER OR
PRESSURE ARE PROVIDED BY THE NEBRASKA DEPARTMENT OF
ROADS...RAWS...AND APRS NETWORKS...AND ARE NOT UNDER
NATIONAL WEATHER SERVICE QUALITY CONTROL***

...OBSERVATIONS IN AND NEAR THE EASTERN PANHANDLE OF NEBRASKA...

CITY           SKY/WX    TMP DP  RH WIND       PRES   REMARKS
PINE RIDGE     CLOUDY    23   8  52 S15G26    30.06F WCI  10
CHADRON        CLOUDY    23  10  57 S18G32    30.04F WCI   9
ALLIANCE       CLOUDY    19   8  62 S22G31    30.03F WCI   2
SIDNEY         CLOUDY    17   8  67 S21G29    30.04S WCI   0
WHITECLAY        N/A     23   8  52 S20         N/A  WCI   9
CRESCENT LAKE    N/A     18   7  60 S15G22      N/A  WCI   4
LISCO            N/A     25   8  48 E22         N/A  WCI  11
BIG SPRINGS      N/A     20   9  61 S15         N/A  WCI   6
LEWELLEN         N/A     16   2  54 S13         N/A  WCI   3
$$

...OBSERVATIONS IN NORTH CENTRAL NEBRASKA...

CITY           SKY/WX    TMP DP  RH WIND       PRES   REMARKS
VALENTINE      SUNNY     26   1  34 S17       30.18F WCI  13
THEDFORD       SUNNY     25   2  37 S18       30.20F WCI  12
AINSWORTH      SUNNY     24  -4  29 S12       30.22F WCI  13
O`NEILL        SUNNY     25  -4  28 S12       30.32S WCI  14
ORD            SUNNY     23  -8  25 S12       30.32F WCI  12
BROKEN BOW     SUNNY     24  -3  30 S20       30.27F WCI  10
BROWNLEE         N/A     23  -2  33 S16         N/A  WCI  10
SPRINGVIEW       N/A     27   1  31 SW7G16      N/A  WCI  20
BREWSTER         N/A     27  -1  29 S17         N/A  WCI  14
ROSE             N/A     26   6  42 E10         N/A  WCI  16
NEWPORT          N/A     29   1  30 S10         N/A  WCI  20
SARGENT          N/A     23  -2  34 S3          N/A
COMSTOCK         N/A     29  -4  24 S14         N/A  WCI  18
CHAMBERS         N/A     22 -20  15 S7          N/A  WCI  14
EWING            N/A     23   1  39 S6          N/A  WCI  16
$$

...OBSERVATIONS IN SOUTHWEST NEBRASKA AND FAR NORTHEAST COLORADO...

CITY           SKY/WX    TMP DP  RH WIND       PRES   REMARKS
WRAY           CLOUDY    19  10  67 SE20      30.12F WCI   3
IMPERIAL         N/A     19   6  57 S18G25    30.17F WCI   4
OGALLALA       CLOUDY    20  10  66 S17       30.16S WCI   5
NORTH PLATTE   PTSUNNY   21   3  45 S13       30.23S WCI   9
MCCOOK         CLOUDY    23   6  48 S16       30.27F WCI  10
LEXINGTON      MOSUNNY   24  -3  31 S13G20    30.29F WCI  12
PAXTON           N/A     21  10  63 S17         N/A  WCI   7
BRADY            N/A     23   3  42 CALM        N/A
GOTHENBURG       N/A     23   2  40 S8          N/A  WCI  14
CALLAWAY         N/A     22   2  42 S16         N/A  WCI   8
$$

...NORTH PLATTE AREA...

CITY           SKY/WX    TMP DP  RH WIND       PRES   REMARKS
AIRPORT        PTSUNNY   21   3  45 S13       30.23S WCI   9
DOWNTOWN         N/A     20   5  52 S12G20      N/A  WCI   8
$$

...SOME WEATHER OBSERVATIONS FROM AROUND THE REGION...

CITY           SKY/WX    TMP DP  RH WIND       PRES   REMARKS
DENVER         MOSUNNY   18   6  59 NW9       29.88F WCI   7
LARAMIE        SUNNY     19   8  62 S10       29.72S WCI   7
CHEYENNE       LGT SNOW  12   5  73 S17       29.84F WCI  -5
SCOTTSBLUFF    CLOUDY    23   8  52 S23G30    30.00F WCI   7
RAPID CITY     CLOUDY    23  11  60 S25       30.02F WCI   7
PIERRE         SUNNY     26  -4  27 S17G25    30.23F WCI  13
WINNER         FAIR      27  -6  23 S13       30.25F WCI  16
SIOUX FALLS    SUNNY     14   2  58 SE8       30.43F WCI   3
OMAHA          MOSUNNY   19   4  51 E8        30.52F WCI   9
GRAND ISLAND   SUNNY     22  -3  33 S13       30.39F WCI  10
KANSAS CITY    CLOUDY    17   0  47 S7        30.54S WCI   8
WICHITA        LGT SNOW  16   9  74 SE7       30.48F WCI   6
HAYS           CLOUDY    19   0  42 SE12      30.37F WCI   7
LIBERAL        CLOUDY    16   7  67 E13       30.28F WCI   2
GOODLAND       LGT SNOW  15   9  76 S22       30.15F WCI  -3
$$



USA.gov is the U.S. government's official web portal to all federal, state and local government web resources and services.